SONATE-2

Last updated on Thu Oct 30 2025 00:03:10 GMT+0000 (Coordinated Universal Time)

1 59112U 24043Q 25302.37275397 .00031553 00000+0 74109-3 0 9996 2 59112 97.5306 77.0865 0009275 328.8627 31.2069 15.41923372 92135
UTC large
Height (km)
Speed (km/s)
/
Latitude / Longitude
Inclination (degrees)
Orbital Period (minutes)
Azimuth
Elevation
Range (km)
Doppler Factor

Next 0 passes for location: London (51.5072 / 0.1276)

Sorry there are no passes over London.